| time (UTC) | temp C | wind direction | speed KPH | gust KPH | rain 1hr cm | rain 24hr cm | rain mn cm | humidity % | barometer mb |
| 20260902022003 | 29 | 0 | 0.0 | 0.0 | 0.00 | 0.00 | 0.00 | 71 | 1010.1 |
| 20260902021004 | 29 | 0 | 0.0 | 0.0 | 0.00 | 0.00 | 0.00 | 70 | 1010.0 |
| 20260902020503 | 30 | 0 | 0.0 | 0.0 | 0.00 | 0.00 | 0.00 | 71 | 1010.0 |
| 20260902020007 | 30 | 194 | 0.0 | 1.6 | 0.00 | 0.00 | 0.00 | 70 | 1009.9 |
| 20260902015504 | 30 | 194 | 0.0 | 1.6 | 0.00 | 0.00 | 0.00 | 70 | 1009.9 |
| 20260902014507 | 30 | 0 | 0.0 | 0.0 | 0.00 | 0.00 | 0.00 | 69 | 1009.8 |
| 20260902014004 | 30 | 0 | 0.0 | 0.0 | 0.00 | 0.00 | 0.00 | 68 | 1009.6 |
| 20260902013504 | 30 | 0 | 0.0 | 0.0 | 0.00 | 0.00 | 0.00 | 69 | 1009.6 |
| 20260902013007 | 30 | 194 | 0.0 | 1.6 | 0.00 | 0.00 | 0.00 | 67 | 1009.6 |
| 20260902012504 | 31 | 194 | 0.0 | 1.6 | 0.00 | 0.00 | 0.00 | 67 | 1009.6 |
| 20260902012003 | 31 | 0 | 0.0 | 0.0 | 0.00 | 0.00 | 0.00 | 66 | 1009.4 |
| 20260902011508 | 31 | 0 | 0.0 | 0.0 | 0.00 | 0.00 | 0.00 | 65 | 1009.4 |
| 20260902011004 | 31 | 0 | 0.0 | 0.0 | 0.00 | 0.00 | 0.00 | 64 | 1009.4 |
| 20260902010503 | 31 | 0 | 0.0 | 0.0 | 0.00 | 0.00 | 0.00 | 64 | 1009.5 |
| 20260902005004 | 32 | 192 | 1.6 | 3.2 | 0.00 | 0.00 | 0.00 | 62 | 1009.4 |
| 20260902004508 | 32 | 192 | 1.6 | 9.7 | 0.00 | 0.00 | 0.00 | 60 | 1009.3 |
| 20260902004003 | 32 | 185 | 1.6 | 9.7 | 0.00 | 0.00 | 0.00 | 60 | 1009.2 |
| 20260902003503 | 33 | 183 | 1.6 | 8.0 | 0.00 | 0.00 | 0.00 | 60 | 1009.3 |
| 20260902002503 | 33 | 195 | 1.6 | 4.8 | 0.00 | 0.00 | 0.00 | 60 | 1009.3 |
| 20260902002004 | 33 | 185 | 1.6 | 6.4 | 0.00 | 0.00 | 0.00 | 60 | 1009.4 |
| 20260902001508 | 33 | 174 | 1.6 | 6.4 | 0.00 | 0.00 | 0.00 | 59 | 1009.4 |
| 20260902001004 | 33 | 181 | 1.6 | 4.8 | 0.00 | 0.00 | 0.00 | 58 | 1009.4 |
| 20260901235503 | 34 | 195 | 3.2 | 6.4 | 0.00 | 0.00 | 0.00 | 56 | 1009.5 |
| 20260901235004 | 34 | 191 | 3.2 | 8.0 | 0.00 | 0.00 | 0.00 | 57 | 1009.5 |
| 20260901234508 | 34 | 187 | 1.6 | 8.0 | 0.00 | 0.00 | 0.00 | 57 | 1009.5 |
| 20260901233504 | 34 | 182 | 3.2 | 9.7 | 0.00 | 0.00 | 0.00 | 57 | 1009.7 |
| 20260901233008 | 34 | 187 | 3.2 | 9.7 | 0.00 | 0.00 | 0.00 | 56 | 1009.7 |
| 20260901232504 | 34 | 188 | 3.2 | 9.7 | 0.00 | 0.00 | 0.00 | 56 | 1009.7 |
| 20260901232003 | 34 | 190 | 3.2 | 11.3 | 0.00 | 0.00 | 0.00 | 57 | 1009.8 |
| 20260901231507 | 34 | 189 | 4.8 | 14.5 | 0.00 | 0.00 | 0.00 | 57 | 1009.8 |
| 20260901231003 | 34 | 185 | 4.8 | 14.5 | 0.00 | 0.00 | 0.00 | 56 | 1009.7 |
| 20260901230504 | 35 | 185 | 4.8 | 11.3 | 0.00 | 0.00 | 0.00 | 56 | 1009.8 |
| 20260901230008 | 35 | 184 | 4.8 | 11.3 | 0.00 | 0.00 | 0.00 | 57 | 1009.8 |
| 20260901225504 | 35 | 189 | 3.2 | 16.1 | 0.00 | 0.00 | 0.00 | 57 | 1009.9 |
| 20260901225004 | 35 | 197 | 3.2 | 16.1 | 0.00 | 0.00 | 0.00 | 58 | 1010.0 |
| 20260901224508 | 35 | 199 | 1.6 | 8.0 | 0.00 | 0.00 | 0.00 | 59 | 1010.0 |
| 20260901224003 | 35 | 193 | 3.2 | 6.4 | 0.00 | 0.00 | 0.00 | 58 | 1010.0 |
| 20260901223503 | 34 | 191 | 4.8 | 12.9 | 0.00 | 0.00 | 0.00 | 58 | 1010.0 |
| 20260901223008 | 35 | 190 | 6.4 | 19.3 | 0.00 | 0.00 | 0.00 | 57 | 1010.0 |
| 20260901222503 | 34 | 191 | 6.4 | 19.3 | 0.00 | 0.00 | 0.00 | 57 | 1010.1 |
| 20260901222003 | 35 | 191 | 6.4 | 16.1 | 0.00 | 0.00 | 0.00 | 58 | 1010.0 |
| 20260901220504 | 34 | 195 | 4.8 | 14.5 | 0.00 | 0.00 | 0.00 | 58 | 1010.2 |
| 20260901220008 | 34 | 202 | 4.8 | 11.3 | 0.00 | 0.00 | 0.00 | 58 | 1010.2 |
| 20260901215503 | 34 | 197 | 4.8 | 14.5 | 0.00 | 0.00 | 0.00 | 58 | 1010.3 |
| 20260901215003 | 34 | 193 | 4.8 | 14.5 | 0.00 | 0.00 | 0.00 | 58 | 1010.2 |
| 20260901214508 | 34 | 193 | 4.8 | 14.5 | 0.00 | 0.00 | 0.00 | 57 | 1010.3 |
| 20260901214004 | 34 | 201 | 3.2 | 14.5 | 0.00 | 0.00 | 0.00 | 59 | 1010.3 |
| 20260901213503 | 34 | 197 | 3.2 | 14.5 | 0.00 | 0.00 | 0.00 | 58 | 1010.3 |
| 20260901213008 | 34 | 192 | 4.8 | 9.7 | 0.00 | 0.00 | 0.00 | 59 | 1010.4 |
| 20260901212503 | 34 | 193 | 4.8 | 9.7 | 0.00 | 0.00 | 0.00 | 59 | 1010.4 |
| 20260901212004 | 34 | 191 | 3.2 | 9.7 | 0.00 | 0.00 | 0.00 | 59 | 1010.4 |
| 20260901211508 | 34 | 185 | 4.8 | 12.9 | 0.00 | 0.00 | 0.00 | 60 | 1010.5 |
| 20260901211003 | 34 | 184 | 4.8 | 12.9 | 0.00 | 0.00 | 0.00 | 60 | 1010.6 |
| 20260901210503 | 34 | 191 | 4.8 | 11.3 | 0.00 | 0.00 | 0.00 | 59 | 1010.6 |
| 20260901210008 | 34 | 193 | 4.8 | 11.3 | 0.00 | 0.00 | 0.00 | 60 | 1010.8 |
| 20260901205503 | 34 | 192 | 4.8 | 16.1 | 0.00 | 0.00 | 0.00 | 59 | 1010.8 |
| 20260901205004 | 34 | 189 | 4.8 | 16.1 | 0.00 | 0.00 | 0.00 | 59 | 1010.8 |
| 20260901204508 | 34 | 184 | 4.8 | 11.3 | 0.00 | 0.00 | 0.00 | 59 | 1010.9 |
| 20260901204004 | 34 | 187 | 4.8 | 11.3 | 0.00 | 0.00 | 0.00 | 59 | 1010.9 |
| 20260901203503 | 34 | 185 | 4.8 | 9.7 | 0.00 | 0.00 | 0.00 | 58 | 1011.0 |
| 20260901203008 | 35 | 186 | 3.2 | 9.7 | 0.00 | 0.00 | 0.00 | 58 | 1011.0 |
| 20260901202504 | 35 | 193 | 3.2 | 8.0 | 0.00 | 0.00 | 0.00 | 59 | 1011.1 |
| 20260901202004 | 35 | 187 | 3.2 | 8.0 | 0.00 | 0.00 | 0.00 | 59 | 1011.2 |
| 20260901200503 | 34 | 189 | 4.8 | 16.1 | 0.00 | 0.00 | 0.00 | 58 | 1011.4 |
| 20260901195503 | 34 | 192 | 4.8 | 12.9 | 0.00 | 0.00 | 0.00 | 58 | 1011.4 |
| 20260901195004 | 34 | 193 | 4.8 | 12.9 | 0.00 | 0.00 | 0.00 | 57 | 1011.5 |
| 20260901194508 | 34 | 189 | 4.8 | 11.3 | 0.00 | 0.00 | 0.00 | 56 | 1011.5 |
| 20260901194003 | 34 | 187 | 3.2 | 11.3 | 0.00 | 0.00 | 0.00 | 58 | 1011.6 |
| 20260901193503 | 34 | 188 | 4.8 | 9.7 | 0.00 | 0.00 | 0.00 | 56 | 1011.6 |
| 20260901193007 | 34 | 185 | 4.8 | 11.3 | 0.00 | 0.00 | 0.00 | 57 | 1011.7 |
| 20260901192503 | 34 | 186 | 3.2 | 11.3 | 0.00 | 0.00 | 0.00 | 56 | 1011.7 |
| 20260901192004 | 34 | 184 | 3.2 | 12.9 | 0.00 | 0.00 | 0.00 | 57 | 1011.7 |
| 20260901191507 | 33 | 188 | 3.2 | 12.9 | 0.00 | 0.00 | 0.00 | 57 | 1011.8 |
| 20260901190007 | 33 | 190 | 3.2 | 11.3 | 0.00 | 0.00 | 0.00 | 58 | 1011.9 |
| 20260901184507 | 33 | 190 | 3.2 | 9.7 | 0.00 | 0.00 | 0.00 | 57 | 1012.0 |
| 20260901184003 | 33 | 187 | 4.8 | 9.7 | 0.00 | 0.00 | 0.00 | 58 | 1012.1 |
| 20260901183503 | 33 | 190 | 4.8 | 11.3 | 0.00 | 0.00 | 0.00 | 60 | 1012.1 |
| 20260901182503 | 32 | 184 | 3.2 | 9.7 | 0.00 | 0.00 | 0.00 | 58 | 1012.1 |
| 20260901182004 | 33 | 181 | 3.2 | 11.3 | 0.00 | 0.00 | 0.00 | 58 | 1012.1 |
| 20260901181507 | 33 | 179 | 1.6 | 11.3 | 0.00 | 0.00 | 0.00 | 58 | 1012.1 |
| 20260901180503 | 32 | 187 | 3.2 | 12.9 | 0.00 | 0.00 | 0.00 | 60 | 1012.2 |
| 20260901180007 | 32 | 185 | 3.2 | 12.9 | 0.00 | 0.00 | 0.00 | 60 | 1012.3 |
| 20260901175503 | 32 | 187 | 3.2 | 9.7 | 0.00 | 0.00 | 0.00 | 57 | 1012.3 |
| 20260901175003 | 32 | 193 | 3.2 | 9.7 | 0.00 | 0.00 | 0.00 | 59 | 1012.4 |
| 20260901174507 | 32 | 188 | 3.2 | 9.7 | 0.00 | 0.00 | 0.00 | 62 | 1012.5 |
| 20260901174004 | 32 | 182 | 3.2 | 9.7 | 0.00 | 0.00 | 0.00 | 59 | 1012.5 |
| 20260901173007 | 32 | 193 | 1.6 | 4.8 | 0.00 | 0.00 | 0.00 | 61 | 1012.5 |
| 20260901172004 | 31 | 194 | 1.6 | 6.4 | 0.00 | 0.00 | 0.00 | 62 | 1012.6 |
| 20260901171507 | 31 | 191 | 1.6 | 9.7 | 0.00 | 0.00 | 0.00 | 60 | 1012.6 |
| 20260901171003 | 31 | 184 | 1.6 | 9.7 | 0.00 | 0.00 | 0.00 | 61 | 1012.7 |
| 20260901170008 | 31 | 182 | 1.6 | 6.4 | 0.00 | 0.00 | 0.00 | 62 | 1012.8 |
| 20260901165503 | 31 | 188 | 3.2 | 8.0 | 0.00 | 0.00 | 0.00 | 60 | 1012.7 |
| 20260901164508 | 30 | 194 | 3.2 | 9.7 | 0.00 | 0.00 | 0.00 | 62 | 1012.8 |
| 20260901164004 | 30 | 195 | 3.2 | 8.0 | 0.00 | 0.00 | 0.00 | 62 | 1012.9 |
| 20260901163503 | 30 | 193 | 1.6 | 4.8 | 0.00 | 0.00 | 0.00 | 61 | 1012.8 |
| 20260901163007 | 30 | 194 | 1.6 | 4.8 | 0.00 | 0.00 | 0.00 | 63 | 1012.8 |
| 20260901162503 | 30 | 199 | 1.6 | 4.8 | 0.00 | 0.00 | 0.00 | 61 | 1012.8 |
| 20260901160504 | 30 | 185 | 1.6 | 6.4 | 0.00 | 0.00 | 0.00 | 62 | 1012.9 |
| 20260901160008 | 30 | 189 | 1.6 | 6.4 | 0.00 | 0.00 | 0.00 | 64 | 1012.8 |
| 20260901155504 | 30 | 188 | 0.0 | 4.8 | 0.00 | 0.00 | 0.00 | 63 | 1012.8 |
| 20260901154508 | 29 | 183 | 1.6 | 6.4 | 0.00 | 0.00 | 0.00 | 65 | 1012.7 |
| 20260901154004 | 28 | 181 | 1.6 | 6.4 | 0.00 | 0.00 | 0.00 | 66 | 1012.7 |
| 20260901153503 | 28 | 172 | 1.6 | 3.2 | 0.00 | 0.00 | 0.00 | 66 | 1012.8 |
| 20260901153008 | 28 | 158 | 1.6 | 4.8 | 0.00 | 0.00 | 0.00 | 67 | 1012.7 |
| 20260901152504 | 28 | 156 | 0.0 | 4.8 | 0.00 | 0.00 | 0.00 | 68 | 1012.6 |
| 20260901151507 | 28 | 181 | 1.6 | 6.4 | 0.00 | 0.00 | 0.00 | 67 | 1012.7 |
| 20260901151004 | 28 | 176 | 0.0 | 6.4 | 0.00 | 0.00 | 0.00 | 68 | 1012.7 |
| 20260901150503 | 27 | 179 | 1.6 | 6.4 | 0.00 | 0.00 | 0.00 | 69 | 1012.7 |
| 20260901150008 | 27 | 181 | 0.0 | 3.2 | 0.00 | 0.00 | 0.00 | 68 | 1012.7 |
| 20260901145003 | 27 | 169 | 1.6 | 6.4 | 0.00 | 0.00 | 0.00 | 70 | 1012.9 |
| 20260901144004 | 27 | 181 | 1.6 | 4.8 | 0.00 | 0.00 | 0.00 | 71 | 1012.9 |
| 20260901143503 | 27 | 174 | 1.6 | 4.8 | 0.00 | 0.00 | 0.00 | 70 | 1013.0 |
| 20260901143007 | 27 | 172 | 1.6 | 3.2 | 0.00 | 0.00 | 0.00 | 71 | 1013.0 |
| 20260901142503 | 26 | 178 | 1.6 | 3.2 | 0.00 | 0.00 | 0.00 | 72 | 1013.0 |
| 20260901142003 | 26 | 182 | 1.6 | 8.0 | 0.00 | 0.00 | 0.00 | 75 | 1013.0 |
| 20260901141003 | 26 | 207 | 0.0 | 3.2 | 0.00 | 0.00 | 0.00 | 78 | 1013.2 |
| 20260901140504 | 26 | 199 | 0.0 | 3.2 | 0.00 | 0.00 | 0.00 | 79 | 1013.2 |
| 20260901140007 | 26 | 198 | 0.0 | 4.8 | 0.00 | 0.00 | 0.00 | 80 | 1013.2 |
| 20260901135003 | 25 | 196 | 1.6 | 4.8 | 0.00 | 0.00 | 0.00 | 81 | 1013.1 |
| 20260901134507 | 25 | 186 | 1.6 | 4.8 | 0.00 | 0.00 | 0.00 | 82 | 1013.1 |
| 20260901134004 | 25 | 187 | 1.6 | 4.8 | 0.00 | 0.00 | 0.00 | 82 | 1013.1 |
| 20260901132504 | 25 | 196 | 0.0 | 4.8 | 0.00 | 0.00 | 0.00 | 83 | 1013.1 |
| 20260901132004 | 25 | 195 | 0.0 | 3.2 | 0.00 | 0.00 | 0.00 | 84 | 1013.1 |
| 20260901131508 | 25 | 204 | 0.0 | 6.4 | 0.00 | 0.00 | 0.00 | 85 | 1013.1 |
| 20260901131003 | 25 | 204 | 0.0 | 6.4 | 0.00 | 0.00 | 0.00 | 85 | 1013.1 |
| 20260901130008 | 25 | 206 | 0.0 | 3.2 | 0.00 | 0.00 | 0.00 | 84 | 1013.1 |
| 20260901125503 | 24 | 196 | 0.0 | 3.2 | 0.00 | 0.00 | 0.00 | 84 | 1012.9 |
| 20260901125004 | 24 | 193 | 0.0 | 3.2 | 0.00 | 0.00 | 0.00 | 85 | 1013.0 |
| 20260901124508 | 24 | 202 | 0.0 | 4.8 | 0.00 | 0.00 | 0.00 | 85 | 1012.9 |
| 20260901123504 | 24 | 204 | 0.0 | 3.2 | 0.00 | 0.00 | 0.00 | 86 | 1012.7 |
| 20260901123007 | 24 | 190 | 0.0 | 4.8 | 0.00 | 0.00 | 0.00 | 86 | 1012.7 |
| 20260901122504 | 24 | 196 | 0.0 | 4.8 | 0.00 | 0.00 | 0.00 | 86 | 1012.6 |
| 20260901122004 | 23 | 210 | 0.0 | 3.2 | 0.00 | 0.00 | 0.00 | 86 | 1012.4 |
| 20260901121507 | 23 | 202 | 0.0 | 1.6 | 0.00 | 0.00 | 0.00 | 86 | 1012.4 |
| 20260901121003 | 23 | 213 | 0.0 | 1.6 | 0.00 | 0.00 | 0.00 | 87 | 1012.3 |
| 20260901120008 | 23 | 0 | 0.0 | 0.0 | 0.00 | 0.00 | 0.00 | 89 | 1012.2 |
| 20260901115503 | 23 | 0 | 0.0 | 0.0 | 0.00 | 0.00 | 0.00 | 89 | 1012.2 |
| 20260901115003 | 23 | 0 | 0.0 | 0.0 | 0.00 | 0.00 | 0.00 | 89 | 1012.3 |
| 20260901114508 | 23 | 0 | 0.0 | 0.0 | 0.00 | 0.00 | 0.00 | 89 | 1012.3 |
| 20260901114003 | 23 | 0 | 0.0 | 0.0 | 0.00 | 0.00 | 0.00 | 90 | 1012.2 |
| 20260901113503 | 23 | 0 | 0.0 | 0.0 | 0.00 | 0.00 | 0.00 | 90 | 1012.3 |
| 20260901112503 | 23 | 0 | 0.0 | 0.0 | 0.00 | 0.00 | 0.00 | 90 | 1012.4 |
| 20260901111508 | 23 | 0 | 0.0 | 0.0 | 0.00 | 0.00 | 0.00 | 90 | 1012.3 |
| 20260901111003 | 23 | 0 | 0.0 | 0.0 | 0.00 | 0.00 | 0.00 | 90 | 1012.3 |
| 20260901110503 | 23 | 0 | 0.0 | 0.0 | 0.00 | 0.00 | 0.00 | 90 | 1012.4 |
| 20260901110008 | 23 | 0 | 0.0 | 0.0 | 0.00 | 0.00 | 0.00 | 90 | 1012.5 |
| 20260901105503 | 24 | 0 | 0.0 | 0.0 | 0.00 | 0.00 | 0.00 | 90 | 1012.5 |
| 20260901105003 | 24 | 0 | 0.0 | 0.0 | 0.00 | 0.00 | 0.00 | 90 | 1012.4 |
| 20260901104508 | 24 | 0 | 0.0 | 0.0 | 0.00 | 0.00 | 0.00 | 90 | 1012.5 |
| 20260901104003 | 24 | 0 | 0.0 | 0.0 | 0.00 | 0.00 | 0.00 | 90 | 1012.5 |
| 20260901103503 | 24 | 0 | 0.0 | 0.0 | 0.00 | 0.00 | 0.00 | 90 | 1012.5 |
| 20260901103008 | 24 | 221 | 0.0 | 1.6 | 0.00 | 0.00 | 0.00 | 90 | 1012.4 |
| 20260901102503 | 24 | 220 | 0.0 | 1.6 | 0.00 | 0.00 | 0.00 | 90 | 1012.6 |
| 20260901102003 | 24 | 215 | 0.0 | 1.6 | 0.00 | 0.00 | 0.00 | 90 | 1012.6 |
| 20260901101508 | 24 | 0 | 0.0 | 0.0 | 0.00 | 0.00 | 0.00 | 91 | 1012.7 |
| 20260901100503 | 24 | 0 | 0.0 | 0.0 | 0.00 | 0.00 | 0.00 | 91 | 1012.7 |
| 20260901100008 | 24 | 0 | 0.0 | 0.0 | 0.00 | 0.00 | 0.00 | 91 | 1012.7 |
| 20260901095503 | 24 | 0 | 0.0 | 0.0 | 0.00 | 0.00 | 0.00 | 92 | 1012.7 |
| 20260901095004 | 24 | 0 | 0.0 | 0.0 | 0.00 | 0.00 | 0.00 | 92 | 1012.8 |
| 20260901094003 | 24 | 0 | 0.0 | 0.0 | 0.00 | 0.00 | 0.00 | 93 | 1012.8 |
| 20260901093503 | 24 | 213 | 0.0 | 1.6 | 0.00 | 0.00 | 0.00 | 93 | 1012.8 |
| 20260901093008 | 24 | 213 | 0.0 | 1.6 | 0.00 | 0.00 | 0.00 | 94 | 1012.8 |
| 20260901092503 | 23 | 0 | 0.0 | 0.0 | 0.00 | 0.00 | 0.00 | 94 | 1012.9 |
| 20260901092003 | 23 | 0 | 0.0 | 0.0 | 0.00 | 0.00 | 0.00 | 95 | 1012.9 |
| 20260901091508 | 23 | 0 | 0.0 | 0.0 | 0.00 | 0.00 | 0.00 | 96 | 1012.8 |
| 20260901091004 | 23 | 0 | 0.0 | 0.0 | 0.00 | 0.00 | 0.00 | 96 | 1012.8 |
| 20260901090504 | 23 | 0 | 0.0 | 0.0 | 0.00 | 0.00 | 0.00 | 96 | 1012.8 |
| 20260901090008 | 23 | 0 | 0.0 | 0.0 | 0.00 | 0.00 | 0.00 | 96 | 1012.8 |
| 20260901084003 | 23 | 0 | 0.0 | 0.0 | 0.00 | 0.00 | 0.00 | 95 | 1012.7 |
| 20260901083503 | 23 | 0 | 0.0 | 0.0 | 0.00 | 0.00 | 0.00 | 95 | 1012.6 |
| 20260901083008 | 23 | 0 | 0.0 | 0.0 | 0.00 | 0.00 | 0.00 | 95 | 1012.7 |
| 20260901082003 | 23 | 0 | 0.0 | 0.0 | 0.00 | 0.00 | 0.00 | 95 | 1012.6 |
| 20260901081508 | 23 | 0 | 0.0 | 0.0 | 0.00 | 0.00 | 0.00 | 95 | 1012.6 |
| 20260901080008 | 23 | 0 | 0.0 | 0.0 | 0.00 | 0.00 | 0.00 | 94 | 1012.7 |
| 20260901075503 | 23 | 0 | 0.0 | 0.0 | 0.00 | 0.00 | 0.00 | 94 | 1012.8 |
| 20260901075004 | 23 | 0 | 0.0 | 0.0 | 0.00 | 0.00 | 0.00 | 94 | 1012.8 |
| 20260901074508 | 23 | 0 | 0.0 | 0.0 | 0.00 | 0.00 | 0.00 | 94 | 1012.8 |
| 20260901073504 | 23 | 0 | 0.0 | 0.0 | 0.00 | 0.00 | 0.00 | 94 | 1012.8 |
| 20260901072503 | 23 | 0 | 0.0 | 0.0 | 0.00 | 0.00 | 0.00 | 94 | 1012.8 |
| 20260901071003 | 23 | 0 | 0.0 | 0.0 | 0.00 | 0.00 | 0.00 | 94 | 1012.9 |
| 20260901070503 | 23 | 0 | 0.0 | 0.0 | 0.00 | 0.00 | 0.00 | 94 | 1012.9 |
| 20260901070008 | 24 | 0 | 0.0 | 0.0 | 0.00 | 0.00 | 0.00 | 94 | 1012.9 |
| 20260901065503 | 23 | 0 | 0.0 | 0.0 | 0.00 | 0.00 | 0.00 | 94 | 1013.0 |
| 20260901065004 | 23 | 0 | 0.0 | 0.0 | 0.00 | 0.00 | 0.00 | 93 | 1012.9 |
| 20260901064508 | 24 | 0 | 0.0 | 0.0 | 0.00 | 0.00 | 0.00 | 93 | 1012.9 |
| 20260901064003 | 24 | 0 | 0.0 | 0.0 | 0.00 | 0.00 | 0.00 | 93 | 1013.0 |
| 20260901063504 | 24 | 0 | 0.0 | 0.0 | 0.00 | 0.00 | 0.00 | 93 | 1013.0 |
| 20260901062503 | 24 | 0 | 0.0 | 0.0 | 0.00 | 0.00 | 0.00 | 93 | 1013.0 |
| 20260901061508 | 24 | 0 | 0.0 | 0.0 | 0.00 | 0.00 | 0.00 | 93 | 1013.0 |
| 20260901061004 | 24 | 0 | 0.0 | 0.0 | 0.00 | 0.00 | 0.00 | 93 | 1013.1 |
| 20260901060503 | 24 | 0 | 0.0 | 0.0 | 0.00 | 0.00 | 0.00 | 93 | 1013.1 |
| 20260901060009 | 24 | 0 | 0.0 | 0.0 | 0.00 | 0.00 | 0.00 | 93 | 1013.1 |
| 20260901055503 | 24 | 0 | 0.0 | 0.0 | 0.00 | 0.00 | 0.00 | 93 | 1013.1 |
| 20260901054003 | 24 | 0 | 0.0 | 0.0 | 0.00 | 0.00 | 0.00 | 93 | 1013.2 |
| 20260901053504 | 24 | 0 | 0.0 | 0.0 | 0.00 | 0.00 | 0.00 | 92 | 1013.3 |
| 20260901053009 | 24 | 0 | 0.0 | 0.0 | 0.00 | 0.00 | 0.00 | 92 | 1013.3 |
| 20260901052503 | 24 | 0 | 0.0 | 0.0 | 0.00 | 0.00 | 0.00 | 92 | 1013.3 |
| 20260901052003 | 25 | 0 | 0.0 | 0.0 | 0.00 | 0.00 | 0.00 | 92 | 1013.2 |
| 20260901051508 | 25 | 0 | 0.0 | 0.0 | 0.00 | 0.00 | 0.00 | 92 | 1013.2 |
| 20260901051004 | 25 | 0 | 0.0 | 0.0 | 0.00 | 0.00 | 0.00 | 92 | 1013.1 |
| 20260901050503 | 25 | 0 | 0.0 | 0.0 | 0.00 | 0.00 | 0.00 | 91 | 1013.0 |
| 20260901050010 | 25 | 0 | 0.0 | 0.0 | 0.00 | 0.00 | 0.00 | 91 | 1013.1 |
| 20260901045003 | 25 | 0 | 0.0 | 0.0 | 0.00 | 0.00 | 0.00 | 91 | 1013.2 |
| 20260901044509 | 25 | 0 | 0.0 | 0.0 | 0.00 | 0.00 | 0.00 | 91 | 1013.2 |
| 20260901044004 | 25 | 0 | 0.0 | 0.0 | 0.00 | 0.00 | 0.00 | 90 | 1013.2 |
| 20260901043503 | 25 | 0 | 0.0 | 0.0 | 0.00 | 0.00 | 0.00 | 90 | 1013.2 |
| 20260901043008 | 25 | 0 | 0.0 | 0.0 | 0.00 | 0.00 | 0.00 | 90 | 1013.2 |
| 20260901042003 | 25 | 0 | 0.0 | 0.0 | 0.00 | 0.00 | 0.00 | 90 | 1013.2 |
| 20260901041003 | 25 | 0 | 0.0 | 0.0 | 0.00 | 0.00 | 0.00 | 89 | 1013.2 |
| 20260901040503 | 25 | 0 | 0.0 | 0.0 | 0.00 | 0.00 | 0.00 | 89 | 1013.3 |
| 20260901040008 | 25 | 0 | 0.0 | 0.0 | 0.00 | 0.00 | 0.00 | 89 | 1013.2 |
| 20260901035504 | 25 | 0 | 0.0 | 0.0 | 0.00 | 0.00 | 0.00 | 89 | 1013.2 |
| 20260901035003 | 25 | 0 | 0.0 | 0.0 | 0.00 | 0.00 | 0.00 | 88 | 1013.2 |
| 20260901034508 | 25 | 0 | 0.0 | 0.0 | 0.00 | 0.00 | 0.00 | 88 | 1013.1 |
| 20260901034003 | 25 | 0 | 0.0 | 0.0 | 0.00 | 0.00 | 0.00 | 88 | 1013.0 |
| 20260901032503 | 25 | 0 | 0.0 | 0.0 | 0.00 | 0.00 | 0.00 | 87 | 1012.9 |
| 20260901032003 | 25 | 0 | 0.0 | 0.0 | 0.00 | 0.00 | 0.00 | 86 | 1012.9 |
| 20260901031004 | 25 | 0 | 0.0 | 0.0 | 0.00 | 0.00 | 0.00 | 87 | 1012.9 |
| 20260901030504 | 26 | 0 | 0.0 | 0.0 | 0.00 | 0.00 | 0.00 | 86 | 1012.9 |
| 20260901030008 | 26 | 0 | 0.0 | 0.0 | 0.00 | 0.00 | 0.00 | 86 | 1012.9 |
| 20260901025503 | 26 | 0 | 0.0 | 0.0 | 0.00 | 0.00 | 0.00 | 86 | 1012.8 |
| 20260901025004 | 26 | 0 | 0.0 | 0.0 | 0.00 | 0.00 | 0.00 | 86 | 1012.7 |
| 20260901024508 | 26 | 0 | 0.0 | 0.0 | 0.00 | 0.00 | 0.00 | 86 | 1012.7 |
| 20260901024003 | 26 | 0 | 0.0 | 0.0 | 0.00 | 0.00 | 0.00 | 86 | 1012.6 |
| 20260901023503 | 26 | 0 | 0.0 | 0.0 | 0.00 | 0.00 | 0.00 | 85 | 1012.5 |
| 20260901023008 | 26 | 0 | 0.0 | 0.0 | 0.00 | 0.00 | 0.00 | 85 | 1012.5 |
| 20260901022504 | 26 | 0 | 0.0 | 0.0 | 0.00 | 0.00 | 0.00 | 85 | 1012.5 |